Location: Rounton
(54.4000°N, 1.3500°W)
Time: 08:20:45
(UTC+00:00)

Vanguard 2 - All Passes

Search period start: 25 February 2024 00:00
Search period end: 06 March 2024 00:00
Orbit: 553 x 2919 km, 32.9° (Epoch: 24 February)

Date Brightness Start Highest point End Pass type
(mag) Time Alt. Az. Time Alt. Az. Time Alt. Az.
25 Feb - 01:57:19 10° WSW 02:05:48 16° SW 02:14:20 10° S night (unlit)
25 Feb - 17:46:44 10° SE 17:47:08 10° SE 17:47:33 10° SE daylight
25 Feb - 19:45:16 10° SSW 19:54:03 25° SSE 20:05:29 10° ESE visible
25 Feb - 21:51:27 10° SW 22:02:37 31° S 22:16:29 10° SE visible
26 Feb - 00:00:17 10° WSW 00:11:46 25° SSW 00:24:27 10° SSE visible
26 Feb - 02:14:57 10° WSW 02:20:08 12° SW 02:25:22 10° SSW night (unlit)
26 Feb - 17:57:08 10° SSE 18:01:25 13° SE 18:06:21 10° ESE visible
26 Feb - 19:59:38 10° SSW 20:08:37 26° SSE 20:20:29 10° ESE visible
26 Feb - 22:06:19 10° WSW 22:17:18 30° S 22:30:55 10° SE visible
27 Feb - 00:15:45 10° WSW 00:26:20 22° SSW 00:37:57 10° SSE visible
27 Feb - 18:10:16 10° S 18:15:44 16° SE 18:22:29 10° ESE visible
27 Feb - 20:14:09 10° SW 20:23:13 27° SSE 20:35:19 10° ESE visible
27 Feb - 22:21:19 10° WSW 22:31:59 28° S 22:45:10 10° SE visible
28 Feb - 00:31:35 10° WSW 00:40:51 18° SSW 00:50:56 10° S visible
28 Feb - 18:24:01 10° S 18:30:09 18° SSE 18:38:01 10° ESE visible
28 Feb - 20:28:48 10° SW 20:37:52 28° S 20:50:01 10° ESE visible
28 Feb - 22:36:26 10° WSW 22:46:39 26° SSW 22:59:09 10° SSE visible
29 Feb - 00:48:05 10° WSW 00:55:20 15° SW 01:03:06 10° S visible
29 Feb - 18:38:07 10° SSW 18:44:39 20° SSE 18:53:15 10° ESE visible
29 Feb - 20:43:35 10° SW 20:52:33 27° S 21:04:32 10° SE visible
29 Feb - 22:51:44 10° WSW 23:01:18 23° SSW 23:12:51 10° SSE visible
01 Mar - 01:06:39 10° SW 01:09:47 11° SW 01:12:59 10° SSW night (unlit)
01 Mar - 18:52:27 10° SSW 18:59:12 22° SSE 19:08:15 10° ESE visible
01 Mar - 20:58:29 10° SW 21:07:14 26° S 21:18:53 10° SE visible
01 Mar - 23:07:19 10° WSW 23:15:56 19° SSW 23:26:07 10° SSE visible
02 Mar - 17:04:50 10° SSE 17:06:54 11° SE 17:09:11 10° SE daylight
02 Mar - 19:06:57 10° SSW 19:13:47 22° SSE 19:23:04 10° ESE visible
02 Mar - 21:13:31 10° SW 21:21:57 24° S 21:33:01 10° SE visible
02 Mar - 23:23:22 10° WSW 23:30:32 16° SSW 23:38:46 10° S visible
03 Mar - 17:17:52 10° S 17:21:20 13° SSE 17:25:27 10° SE daylight
03 Mar - 19:21:37 10° SW 19:28:26 23° S 19:37:43 10° SE visible
03 Mar - 21:28:42 10° SW 21:36:39 22° SSW 21:46:51 10° SSE visible
03 Mar - 23:40:32 10° SW 23:45:07 12° SSW 23:50:06 10° SSW visible
04 Mar - 17:31:43 10° S 17:35:49 15° SSE 17:40:53 10° SE daylight
04 Mar - 19:36:25 10° SW 19:43:07 22° S 19:52:10 10° SE visible
04 Mar - 21:44:08 10° SW 21:51:21 19° SSW 22:00:20 10° SSE visible
05 Mar - 17:45:56 10° SSW 17:50:22 16° SSE 17:55:58 10° SE daylight
05 Mar - 19:51:22 10° SW 19:57:49 21° S 20:06:25 10° SE visible
05 Mar - 22:00:00 10° SW 22:06:02 15° SSW 22:13:15 10° S visible
